Flag for Mexico Weather past 2 weeks in Matamoros, Tamaulipas, Mexico

Now
56 °F

Overcast.


Feels Like: 54 °F
Forecast: 57 / 67 °F
Wind: 7 mph from Northeast

Location: Brownsville / South Padre Island International Airport

Current Time: Feb 27, 2015 at 12:15:54 AM

Latest Report: Feb 26, 2015 at 11:53 PM


Visibility: 10 mi

Pressure: 30.20 "Hg

Humidity: 75%

Dew point: 48 °F

Location of MatamorosLocation

Historic Weather in Matamoros — Graph

°F

Matamoros temperature yesterday

Maximum temperature yesterday: 69 °F (at 11:53 AM)
Minimum temperature yesterday: 43 °F (at 4:53 AM)
Average temperature yesterday: 56 °F

Past Weeks' High & Low Weather Summary

 TemperatureHumidityPressure
High80 °F (Feb 16, 1:53 PM)100% (Feb 12, 4:53 AM)30.40 "Hg (Feb 12, 4:53 AM)
Low38 °F (Feb 24, 4:53 AM)37% (Feb 18, 1:53 PM)29.78 "Hg (Feb 16, 3:53 PM)
Average60 °F81%30.11 "Hg
* Reported Feb 11 10:53 PM — Feb 26 10:53 PM, Matamoros, Weather by CustomWeather, © 2015

Note: Actual official high and low records may vary slightly from our data, if they occured in-between our weather recording intervals... More about our weather records

Advertising

Matamoros weather history for previous 24 hours

 ConditionsComfort  
Time TempWeatherWind HumidityBarometerVisibility
10:53 PM
Thu, Feb 26
56 °FClear.12 mph72%30.19 "Hg10 mi
9:53 PM56 °FClear.14 mph75%30.17 "Hg10 mi
8:53 PM56 °FClear.10 mph72%30.16 "Hg10 mi
7:53 PM57 °FClear.12 mph69%30.13 "Hg10 mi
6:53 PM58 °FClear.14 mph65%30.10 "Hg10 mi
5:53 PM60 °FSunny.15 mph58%30.07 "Hg10 mi
4:53 PM64 °FSunny.16 mph52%30.05 "Hg10 mi
3:53 PM65 °FSunny.20 mph56%30.03 "Hg10 mi
2:53 PM68 °FSunny.17 mph49%30.03 "Hg10 mi
1:53 PM68 °FSunny.15 mph51%30.03 "Hg10 mi
12:53 PM69 °FSunny.16 mph49%30.04 "Hg10 mi
11:53 AM69 °FSunny.14 mph47%30.06 "Hg10 mi
10:53 AM68 °FSunny.12 mph47%30.05 "Hg10 mi
9:53 AM66 °FSunny.12 mph56%30.04 "Hg10 mi
8:53 AM59 °FSunny.6 mph81%30.02 "Hg10 mi
7:53 AM47 °FFog.No wind97%29.99 "Hg5 mi
6:53 AM43 °FFog.3 mph100%29.96 "Hg6 mi
5:53 AM43 °FFog.No wind93%29.95 "Hg6 mi
4:53 AM43 °FClear.No wind93%29.93 "Hg8 mi
3:53 AM44 °FClear.No wind96%29.92 "Hg8 mi
2:53 AM45 °FClear.No wind97%29.93 "Hg8 mi
1:53 AM46 °FClear.3 mph100%29.93 "Hg8 mi
12:53 AM48 °FFog.3 mph93%29.94 "Hg6 mi
Weather by CustomWeather, © 2015

See weather overviewHow to use our weather pages